Flag for U.S.A. Weather past 2 weeks in San Bernardino, California, U.S.A.

Now
55 °F

Passing clouds.


Feels Like: 55 °F
Forecast: 44 / 58 °F
Wind: 3 mph from North

Location: Riverside Municipal Airport

Current Time: Dec 18, 2014 at 10:34:53 AM

Latest Report: Dec 18, 2014 at 9:53 AM


Visibility: 10 mi

Pressure: 30.18 "Hg

Humidity: 69%

Dew point: 45 °F

Location of San BernardinoLocation

Historic Weather in San Bernardino — Graph

°F

San Bernardino temperature yesterday

Maximum temperature yesterday: 60 °F (at 12:53 PM)
Minimum temperature yesterday: 49 °F (at 6:53 AM)
Average temperature yesterday: 54 °F

Past Weeks' High & Low Weather Summary

 TemperatureHumidityPressure
High80 °F (Dec 9, 2:53 PM)100% (Dec 11, 6:53 AM)30.23 "Hg (Dec 11, 6:53 AM)
Low42 °F (Dec 14, 6:53 AM)20% (Dec 9, 2:53 PM)29.82 "Hg (Dec 12, 4:53 AM)
Average58 °F72%30.02 "Hg
* Reported Dec 3 8:53 AM — Dec 18 8:53 AM, San Bernardino, Weather by CustomWeather, © 2014

Note: Actual official high and low records may vary slightly from our data, if they occured in-between our weather recording intervals... More about our weather records

Advertising

San Bernardino weather history for previous 24 hours

 ConditionsComfort  
Time TempWeatherWind HumidityBarometerVisibility
8:53 AM
Dec 18
52 °FSunny.3 mph72%30.17 "Hg10 mi
7:53 AM48 °FPassing clouds.5 mph80%30.15 "Hg10 mi
6:53 AM46 °FSunny.6 mph89%30.14 "Hg10 mi
5:53 AM46 °FClear.3 mph89%30.11 "Hg10 mi
4:53 AM46 °FPassing clouds.No wind89%30.10 "Hg10 mi
3:53 AM48 °FPassing clouds.No wind86%30.10 "Hg10 mi
2:53 AM49 °FPassing clouds.No wind86%30.09 "Hg10 mi
1:53 AM48 °FClear.No wind86%30.09 "Hg10 mi
12:53 AM49 °FClear.3 mph86%30.08 "Hg10 mi
11:53 PM
Dec 17
50 °FClear.5 mph83%30.09 "Hg10 mi
10:53 PM51 °FPassing clouds.No wind80%30.09 "Hg10 mi
9:53 PM52 °FClear.3 mph77%30.09 "Hg10 mi
8:53 PM54 °FOvercast.3 mph74%30.07 "Hg10 mi
7:53 PM55 °FOvercast.No wind67%30.06 "Hg10 mi
6:53 PM56 °FOvercast.3 mph62%30.06 "Hg10 mi
5:53 PM57 °FOvercast.8 mph60%30.06 "Hg10 mi
4:53 PM58 °FOvercast.3 mph62%30.03 "Hg10 mi
3:53 PM58 °FPartly sunny.No wind65%30.02 "Hg10 mi
2:53 PM60 °FBroken clouds.3 mph62%30.02 "Hg10 mi
1:53 PM60 °FBroken clouds.6 mph60%30.01 "Hg10 mi
12:53 PM60 °FPassing clouds.6 mph60%30.01 "Hg10 mi
11:53 AM59 °FPartly sunny.3 mph62%30.01 "Hg10 mi
10:53 AM58 °FPartly sunny.5 mph65%30.03 "Hg10 mi
Weather by CustomWeather, © 2014

See weather overviewHow to use our weather pages